Volver al catálogo

SL-16 DEB

ActivoLEO
NORAD 23406·DEBRIS·🇷🇺 Russia

Lanzado Nov 24, 1994 desde Baikonur Cosmodrome

Loading…

Próximos Pases (próximas 24 horas)

TLE

ActualizadoSource: Space-Track

Época: Sep 14, 2026, 09:08 UTC

1 23406U 94077C   26257.38089806  .00000032  00000-0  68307-4 0  9999
2 23406  71.0286 236.6642 0199793 151.7485   0.4132 13.73476442593377

Sigue SL-16 DEB en tiempo real con AllMySat

Download on the App Store